| time (UTC) | temp C | wind direction | speed KPH | gust KPH | rain 1hr cm | rain 24hr cm | rain mn cm | humidity % | barometer mb |
| 20260508043049 | 17 | 86 | 0.0 | 1.6 | 0.00 | 0.00 | 0.00 | 86 | 1014.8 |
| 20260508041543 | 16 | 57 | 0.0 | 3.2 | 0.00 | 0.00 | 0.00 | 86 | 1014.6 |
| 20260508040050 | 16 | 90 | 1.6 | 3.2 | 0.00 | 0.00 | 0.00 | 86 | 1014.5 |
| 20260508034545 | 17 | 132 | 0.0 | 3.2 | 0.00 | 0.00 | 0.00 | 85 | 1014.3 |
| 20260508033042 | 17 | 126 | 0.0 | 3.2 | 0.00 | 0.00 | 0.00 | 86 | 1014.1 |
| 20260508031551 | 17 | 119 | 0.0 | 4.8 | 0.00 | 0.00 | 0.00 | 85 | 1014.0 |
| 20260508030041 | 17 | 137 | 0.0 | 3.2 | 0.00 | 0.00 | 0.00 | 84 | 1013.8 |
| 20260508024540 | 17 | 118 | 0.0 | 3.2 | 0.00 | 0.00 | 0.00 | 84 | 1013.4 |
| 20260508023039 | 17 | 179 | 1.6 | 3.2 | 0.00 | 0.00 | 0.00 | 83 | 1013.2 |
| 20260508021541 | 17 | 126 | 0.0 | 3.2 | 0.00 | 0.00 | 0.00 | 82 | 1013.1 |
| 20260508020039 | 18 | 34 | 0.0 | 4.8 | 0.00 | 0.00 | 0.00 | 81 | 1012.9 |
| 20260508014538 | 18 | 297 | 0.0 | 4.8 | 0.00 | 0.00 | 0.00 | 80 | 1012.8 |
| 20260508013040 | 19 | 208 | 0.0 | 4.8 | 0.00 | 0.00 | 0.00 | 79 | 1012.8 |
| 20260508011544 | 20 | 265 | 0.0 | 4.8 | 0.00 | 0.00 | 0.00 | 77 | 1012.8 |
| 20260508010040 | 21 | 310 | 0.0 | 3.2 | 0.00 | 0.00 | 0.00 | 74 | 1012.9 |
| 20260508004540 | 22 | 171 | 0.0 | 3.2 | 0.00 | 0.00 | 0.00 | 71 | 1012.8 |
| 20260508003036 | 22 | 234 | 0.0 | 4.8 | 0.00 | 0.00 | 0.00 | 71 | 1012.7 |
| 20260508001537 | 22 | 211 | 0.0 | 3.2 | 0.00 | 0.00 | 0.00 | 70 | 1012.7 |
| 20260508000031 | 22 | 235 | 0.0 | 3.2 | 0.00 | 0.00 | 0.00 | 71 | 1012.8 |
| 20260507234535 | 22 | 192 | 0.0 | 4.8 | 0.00 | 0.00 | 0.00 | 72 | 1013.0 |
| 20260507233033 | 21 | 230 | 0.0 | 3.2 | 0.00 | 0.00 | 0.00 | 74 | 1012.9 |
| 20260507231531 | 21 | 205 | 0.0 | 4.8 | 0.00 | 0.00 | 0.00 | 75 | 1012.9 |
| 20260507230026 | 21 | 227 | 0.0 | 4.8 | 0.00 | 0.00 | 0.00 | 74 | 1013.1 |
| 20260507224526 | 21 | 33 | 3.2 | 9.7 | 0.00 | 0.00 | 0.00 | 71 | 1013.2 |
| 20260507223024 | 22 | 219 | 1.6 | 6.4 | 0.00 | 0.00 | 0.00 | 71 | 1013.4 |
| 20260507221524 | 21 | 144 | 1.6 | 9.7 | 0.00 | 0.00 | 0.00 | 72 | 1013.4 |
| 20260507220021 | 22 | 193 | 0.0 | 4.8 | 0.00 | 0.00 | 0.00 | 71 | 1013.6 |
| 20260507214525 | 21 | 208 | 1.6 | 6.4 | 0.00 | 0.00 | 0.00 | 72 | 1013.7 |
| 20260507213017 | 21 | 217 | 1.6 | 8.0 | 0.00 | 0.00 | 0.00 | 72 | 1014.0 |
| 20260507211516 | 21 | 155 | 1.6 | 6.4 | 0.00 | 0.00 | 0.00 | 72 | 1014.1 |
| 20260507210016 | 21 | 253 | 1.6 | 8.0 | 0.00 | 0.00 | 0.00 | 71 | 1014.2 |
| 20260507204513 | 21 | 193 | 3.2 | 6.4 | 0.00 | 0.00 | 0.00 | 71 | 1014.2 |
| 20260507203013 | 21 | 360 | 1.6 | 8.0 | 0.00 | 0.00 | 0.00 | 73 | 1014.3 |
| 20260507201610 | 21 | 298 | 1.6 | 4.8 | 0.00 | 0.00 | 0.00 | 72 | 1014.3 |
| 20260507200008 | 21 | 48 | 0.0 | 6.4 | 0.00 | 0.00 | 0.00 | 73 | 1014.4 |
| 20260507194508 | 20 | 200 | 1.6 | 6.4 | 0.00 | 0.00 | 0.00 | 74 | 1014.6 |
| 20260507193005 | 20 | 286 | 0.0 | 9.7 | 0.00 | 0.00 | 0.00 | 74 | 1014.7 |
| 20260507191504 | 20 | 290 | 1.6 | 6.4 | 0.00 | 0.00 | 0.00 | 74 | 1014.8 |
| 20260507190003 | 20 | 217 | 1.6 | 8.0 | 0.00 | 0.00 | 0.00 | 75 | 1015.1 |
| 20260507184558 | 20 | 185 | 0.0 | 6.4 | 0.00 | 0.00 | 0.00 | 76 | 1015.2 |
| 20260507183056 | 20 | 40 | 1.6 | 4.8 | 0.00 | 0.00 | 0.00 | 75 | 1015.2 |
| 20260507181553 | 20 | 157 | 0.0 | 6.4 | 0.00 | 0.00 | 0.00 | 76 | 1015.3 |
| 20260507180051 | 19 | 26 | 0.0 | 8.0 | 0.00 | 0.00 | 0.00 | 77 | 1015.3 |
| 20260507174614 | 19 | 271 | 1.6 | 6.4 | 0.00 | 0.00 | 0.00 | 77 | 1015.3 |
| 20260507173046 | 19 | 227 | 0.0 | 4.8 | 0.00 | 0.00 | 0.00 | 79 | 1015.4 |
| 20260507171559 | 18 | 261 | 0.0 | 3.2 | 0.00 | 0.00 | 0.00 | 78 | 1015.5 |
| 20260507170039 | 18 | 242 | 0.0 | 3.2 | 0.00 | 0.00 | 0.00 | 80 | 1015.6 |
| 20260507164537 | 17 | 167 | 0.0 | 4.8 | 0.00 | 0.00 | 0.00 | 82 | 1015.6 |
| 20260507163029 | 17 | 302 | 0.0 | 4.8 | 0.00 | 0.00 | 0.00 | 84 | 1015.5 |
| 20260507161527 | 16 | 167 | 0.0 | 4.8 | 0.00 | 0.00 | 0.00 | 85 | 1015.5 |
| 20260507160023 | 16 | 177 | 0.0 | 4.8 | 0.00 | 0.00 | 0.00 | 88 | 1015.5 |
| 20260507154521 | 16 | 184 | 0.0 | 4.8 | 0.00 | 0.00 | 0.00 | 88 | 1015.5 |
| 20260507153019 | 15 | 187 | 0.0 | 3.2 | 0.00 | 0.00 | 0.00 | 89 | 1015.7 |
| 20260507151511 | 15 | 250 | 0.0 | 3.2 | 0.00 | 0.00 | 0.00 | 89 | 1015.6 |
| 20260507150007 | 14 | 40 | 0.0 | 1.6 | 0.00 | 0.00 | 0.00 | 90 | 1015.7 |
| 20260507144502 | 13 | 39 | 0.0 | 1.6 | 0.00 | 0.00 | 0.00 | 90 | 1015.6 |
| 20260507143119 | 12 | 39 | 0.0 | 3.2 | 0.00 | 0.00 | 0.00 | 90 | 1015.5 |
| 20260507141626 | 12 | 41 | 0.0 | 3.2 | 0.00 | 0.00 | 0.00 | 91 | 1015.3 |
| 20260507140112 | 11 | 41 | 0.0 | 3.2 | 0.00 | 0.00 | 0.00 | 91 | 1015.2 |
| 20260507134555 | 11 | 41 | 0.0 | 0.0 | 0.00 | 0.00 | 0.00 | 91 | 1015.1 |
| 20260507133057 | 10 | 41 | 0.0 | 1.6 | 0.00 | 0.00 | 0.00 | 91 | 1015.1 |
| 20260507131613 | 10 | 41 | 0.0 | 0.0 | 0.00 | 0.00 | 0.00 | 90 | 1014.8 |
| 20260507130047 | 10 | 41 | 0.0 | 3.2 | 0.00 | 0.00 | 0.00 | 90 | 1014.8 |
| 20260507124553 | 10 | 41 | 0.0 | 1.6 | 0.00 | 0.00 | 0.00 | 90 | 1014.7 |
| 20260507123046 | 11 | 41 | 0.0 | 1.6 | 0.00 | 0.00 | 0.00 | 89 | 1014.7 |
| 20260507121544 | 11 | 41 | 0.0 | 1.6 | 0.00 | 0.00 | 0.00 | 90 | 1014.6 |
| 20260507120043 | 11 | 40 | 0.0 | 3.2 | 0.00 | 0.00 | 0.00 | 89 | 1014.7 |
| 20260507114540 | 11 | 40 | 0.0 | 1.6 | 0.00 | 0.00 | 0.00 | 89 | 1014.8 |
| 20260507113102 | 11 | 40 | 0.0 | 1.6 | 0.00 | 0.00 | 0.00 | 89 | 1014.7 |
| 20260507111538 | 11 | 41 | 0.0 | 1.6 | 0.00 | 0.00 | 0.00 | 89 | 1015.0 |
| 20260507110039 | 11 | 41 | 0.0 | 1.6 | 0.00 | 0.00 | 0.00 | 89 | 1015.0 |
| 20260507104536 | 11 | 41 | 0.0 | 1.6 | 0.00 | 0.00 | 0.00 | 88 | 1015.0 |
| 20260507103033 | 12 | 41 | 0.0 | 1.6 | 0.00 | 0.00 | 0.00 | 88 | 1015.1 |
| 20260507101532 | 12 | 41 | 0.0 | 3.2 | 0.00 | 0.00 | 0.00 | 89 | 1015.1 |
| 20260507100042 | 12 | 64 | 0.0 | 4.8 | 0.00 | 0.00 | 0.00 | 88 | 1015.0 |
| 20260507094529 | 12 | 355 | 1.6 | 6.4 | 0.00 | 0.00 | 0.00 | 89 | 1015.1 |
| 20260507093031 | 12 | 32 | 0.0 | 6.4 | 0.00 | 0.00 | 0.00 | 88 | 1015.1 |
| 20260507091529 | 12 | 40 | 0.0 | 4.8 | 0.00 | 0.00 | 0.00 | 88 | 1015.3 |
| 20260507090122 | 12 | 18 | 0.0 | 1.6 | 0.00 | 0.00 | 0.00 | 87 | 1015.5 |
| 20260507084541 | 12 | 17 | 0.0 | 3.2 | 0.00 | 0.00 | 0.00 | 87 | 1015.8 |
| 20260507083024 | 12 | 17 | 0.0 | 1.6 | 0.00 | 0.00 | 0.00 | 87 | 1015.8 |
| 20260507081516 | 12 | 17 | 0.0 | 1.6 | 0.00 | 0.00 | 0.00 | 86 | 1016.0 |
| 20260507080016 | 12 | 17 | 0.0 | 3.2 | 0.00 | 0.00 | 0.00 | 86 | 1016.1 |
| 20260507074514 | 12 | 17 | 0.0 | 3.2 | 0.00 | 0.00 | 0.00 | 86 | 1016.0 |
| 20260507073012 | 13 | 15 | 0.0 | 3.2 | 0.00 | 0.00 | 0.00 | 86 | 1015.9 |
| 20260507071516 | 13 | 17 | 0.0 | 1.6 | 0.00 | 0.00 | 0.00 | 85 | 1016.0 |
| 20260507070016 | 13 | 15 | 0.0 | 3.2 | 0.00 | 0.00 | 0.00 | 85 | 1016.1 |
| 20260507064507 | 13 | 15 | 0.0 | 1.6 | 0.00 | 0.00 | 0.00 | 84 | 1016.2 |
| 20260507063007 | 13 | 14 | 0.0 | 1.6 | 0.00 | 0.00 | 0.00 | 84 | 1016.4 |
| 20260507061507 | 13 | 14 | 0.0 | 1.6 | 0.00 | 0.00 | 0.00 | 84 | 1016.3 |
| 20260507060006 | 14 | 13 | 0.0 | 1.6 | 0.00 | 0.00 | 0.00 | 83 | 1016.4 |
| 20260507054509 | 14 | 14 | 0.0 | 1.6 | 0.00 | 0.00 | 0.00 | 83 | 1016.4 |
| 20260507053006 | 14 | 13 | 0.0 | 1.6 | 0.00 | 0.00 | 0.00 | 82 | 1016.5 |
| 20260507051505 | 15 | 13 | 0.0 | 1.6 | 0.00 | 0.00 | 0.00 | 81 | 1016.1 |
| 20260507050013 | 15 | 13 | 0.0 | 3.2 | 0.00 | 0.00 | 0.00 | 82 | 1016.1 |
| 20260507044503 | 15 | 298 | 0.0 | 1.6 | 0.00 | 0.00 | 0.00 | 82 | 1016.0 |